| time (UTC) | temp F | wind direction | speed knots | gust knots | rain 1hr in | rain 24hr in | rain mn in | humidity % | barometer mb |
| 20260506151542 | 53 | 360 | 7.0 | 12.2 | 0.00 | 0.00 | 0.00 | 41 | 1016.5 |
| 20260506150034 | 54 | 360 | 3.5 | 10.4 | 0.00 | 0.00 | 0.00 | 40 | 1016.6 |
| 20260506144529 | 53 | 313 | 3.5 | 11.3 | 0.00 | 0.00 | 0.00 | 39 | 1016.5 |
| 20260506143026 | 54 | 360 | 2.6 | 7.0 | 0.00 | 0.00 | 0.00 | 39 | 1016.7 |
| 20260506141519 | 53 | 360 | 1.7 | 6.1 | 0.00 | 0.00 | 0.00 | 39 | 1016.6 |
| 20260506140017 | 52 | 360 | 0.9 | 3.5 | 0.00 | 0.00 | 0.00 | 38 | 1016.6 |
| 20260506134511 | 51 | 317 | 0.0 | 0.0 | 0.00 | 0.00 | 0.00 | 32 | 1016.4 |
| 20260506133006 | 50 | 338 | 0.0 | 0.0 | 0.00 | 0.00 | 0.00 | 30 | 1016.0 |
| 20260506131502 | 49 | 360 | 0.0 | 0.0 | 0.00 | 0.00 | 0.00 | 28 | 1015.9 |
| 20260506124554 | 48 | 5 | 0.0 | 0.0 | 0.00 | 0.00 | 0.00 | 25 | 1015.7 |
| 20260506123050 | 47 | 18 | 0.0 | 0.0 | 0.00 | 0.00 | 0.00 | 19 | 1015.4 |
| 20260506121545 | 46 | 18 | 0.0 | 0.0 | 0.00 | 0.00 | 0.00 | 11 | 1015.3 |
| 20260506120042 | 45 | 18 | 0.0 | 0.0 | 0.00 | 0.00 | 0.00 | 5 | 1015.0 |
| 20260506114536 | 44 | 18 | 0.0 | 0.0 | 0.00 | 0.00 | 0.00 | 100 | 1015.0 |
| 20260506113039 | 44 | 18 | 0.0 | 0.0 | 0.00 | 0.00 | 0.00 | 100 | 1014.9 |
| 20260506111531 | 43 | 18 | 0.0 | 0.0 | 0.00 | 0.00 | 0.00 | 100 | 1014.8 |
| 20260506110023 | 43 | 18 | 0.0 | 0.0 | 0.00 | 0.00 | 0.00 | 100 | 1014.7 |
| 20260506104521 | 44 | 25 | 0.0 | 0.0 | 0.00 | 0.00 | 0.00 | 2 | 1014.5 |
| 20260506103015 | 44 | 25 | 0.0 | 0.0 | 0.00 | 0.00 | 0.00 | 12 | 1014.3 |
| 20260506101511 | 44 | 25 | 0.0 | 0.0 | 0.00 | 0.00 | 0.00 | 21 | 1013.9 |
| 20260506100011 | 44 | 25 | 0.0 | 0.0 | 0.00 | 0.00 | 0.00 | 27 | 1013.8 |
| 20260506094506 | 44 | 25 | 0.0 | 0.0 | 0.00 | 0.00 | 0.00 | 32 | 1013.8 |
| 20260506093004 | 45 | 25 | 0.0 | 0.0 | 0.00 | 0.00 | 0.00 | 37 | 1013.7 |
| 20260506091505 | 45 | 42 | 0.0 | 0.0 | 0.00 | 0.00 | 0.00 | 40 | 1013.7 |
| 20260506090107 | 45 | 43 | 0.0 | 0.0 | 0.00 | 0.00 | 0.00 | 44 | 1013.5 |
| 20260506084606 | 45 | 42 | 0.0 | 0.0 | 0.00 | 0.00 | 0.00 | 47 | 1013.7 |
| 20260506083057 | 45 | 43 | 0.0 | 0.0 | 0.00 | 0.00 | 0.00 | 49 | 1013.5 |
| 20260506081554 | 46 | 43 | 0.0 | 0.0 | 0.00 | 0.00 | 0.00 | 50 | 1013.4 |
| 20260506073048 | 47 | 11 | 0.0 | 1.7 | 0.00 | 0.00 | 0.00 | 50 | 1013.2 |
| 20260506071546 | 47 | 13 | 0.0 | 0.0 | 0.00 | 0.00 | 0.00 | 51 | 1013.0 |
| 20260506061543 | 49 | 348 | 0.0 | 2.6 | 0.00 | 0.00 | 0.00 | 50 | 1013.0 |
| 20260506044523 | 52 | 314 | 0.0 | 0.0 | 0.00 | 0.00 | 0.00 | 47 | 1012.3 |
| 20260506043018 | 53 | 311 | 0.0 | 0.0 | 0.00 | 0.00 | 0.00 | 47 | 1012.2 |
| 20260506041512 | 53 | 306 | 0.0 | 0.0 | 0.00 | 0.00 | 0.00 | 48 | 1012.5 |
| 20260506040010 | 53 | 304 | 0.0 | 0.0 | 0.00 | 0.00 | 0.00 | 47 | 1012.6 |
| 20260506034514 | 54 | 302 | 0.0 | 0.0 | 0.00 | 0.00 | 0.00 | 46 | 1012.3 |
| 20260506033100 | 54 | 360 | 0.0 | 0.0 | 0.00 | 0.00 | 0.00 | 47 | 1012.3 |
| 20260506031604 | 54 | 360 | 0.0 | 0.0 | 0.00 | 0.00 | 0.00 | 47 | 1012.1 |
| 20260506030051 | 54 | 360 | 0.0 | 0.0 | 0.00 | 0.00 | 0.00 | 47 | 1011.8 |
| 20260506024606 | 54 | 360 | 0.0 | 0.0 | 0.00 | 0.00 | 0.00 | 46 | 1011.7 |
| 20260506023042 | 54 | 299 | 0.0 | 0.0 | 0.00 | 0.00 | 0.00 | 46 | 1011.8 |
| 20260506021538 | 55 | 299 | 0.0 | 0.0 | 0.00 | 0.00 | 0.00 | 45 | 1011.7 |
| 20260506020033 | 55 | 299 | 0.0 | 0.0 | 0.00 | 0.00 | 0.00 | 45 | 1011.5 |
| 20260506014531 | 55 | 300 | 0.0 | 0.0 | 0.00 | 0.00 | 0.00 | 45 | 1011.1 |
| 20260506013037 | 55 | 299 | 0.0 | 0.0 | 0.00 | 0.00 | 0.00 | 43 | 1011.1 |
| 20260506011520 | 55 | 303 | 0.0 | 0.0 | 0.00 | 0.00 | 0.00 | 44 | 1010.8 |
| 20260506010020 | 56 | 360 | 0.0 | 0.0 | 0.00 | 0.00 | 0.00 | 42 | 1010.8 |
| 20260506004512 | 56 | 360 | 0.0 | 2.6 | 0.00 | 0.00 | 0.00 | 42 | 1010.6 |
| 20260506003008 | 56 | 360 | 0.0 | 1.7 | 0.00 | 0.00 | 0.00 | 41 | 1010.6 |
| 20260506001503 | 56 | 302 | 0.0 | 7.0 | 0.00 | 0.00 | 0.00 | 40 | 1010.2 |
| 20260506000101 | 56 | 360 | 0.0 | 9.6 | 0.00 | 0.00 | 0.00 | 40 | 1010.6 |
| 20260505234556 | 56 | 360 | 2.6 | 8.7 | 0.00 | 0.00 | 0.00 | 38 | 1010.4 |
| 20260505233050 | 57 | 312 | 3.5 | 8.7 | 0.00 | 0.00 | 0.00 | 38 | 1010.4 |
| 20260505231546 | 57 | 308 | 0.9 | 11.3 | 0.00 | 0.00 | 0.00 | 39 | 1010.5 |
| 20260505230054 | 57 | 306 | 2.6 | 9.6 | 0.00 | 0.00 | 0.00 | 37 | 1010.5 |
| 20260505224536 | 57 | 355 | 1.7 | 8.7 | 0.00 | 0.00 | 0.00 | 37 | 1010.6 |
| 20260505223036 | 58 | 319 | 0.9 | 12.2 | 0.00 | 0.00 | 0.00 | 36 | 1010.8 |
| 20260505221533 | 58 | 360 | 5.2 | 13.9 | 0.00 | 0.00 | 0.00 | 37 | 1010.7 |
| 20260505220023 | 58 | 360 | 0.9 | 11.3 | 0.00 | 0.00 | 0.00 | 36 | 1010.6 |
| 20260505214520 | 57 | 360 | 2.6 | 13.0 | 0.00 | 0.00 | 0.00 | 35 | 1010.9 |
| 20260505213014 | 57 | 360 | 7.8 | 13.0 | 0.00 | 0.00 | 0.00 | 34 | 1010.8 |
| 20260505211511 | 58 | 360 | 6.1 | 12.2 | 0.00 | 0.00 | 0.00 | 34 | 1010.9 |
| 20260505210006 | 57 | 360 | 1.7 | 12.2 | 0.00 | 0.00 | 0.00 | 34 | 1010.8 |
| 20260505204502 | 57 | 360 | 6.1 | 11.3 | 0.00 | 0.00 | 0.00 | 33 | 1011.0 |
| 20260505203116 | 57 | 360 | 7.0 | 12.2 | 0.00 | 0.00 | 0.00 | 33 | 1011.0 |
| 20260505201554 | 58 | 360 | 2.6 | 12.2 | 0.00 | 0.00 | 0.00 | 34 | 1011.1 |
| 20260505200050 | 58 | 360 | 6.1 | 13.0 | 0.00 | 0.00 | 0.00 | 34 | 1011.0 |
| 20260505194555 | 58 | 360 | 5.2 | 12.2 | 0.00 | 0.00 | 0.00 | 34 | 1011.1 |
| 20260505193040 | 58 | 360 | 4.3 | 13.0 | 0.00 | 0.00 | 0.00 | 33 | 1011.0 |
| 20260505191535 | 58 | 360 | 7.0 | 12.2 | 0.00 | 0.00 | 0.00 | 33 | 1011.2 |
| 20260505190031 | 57 | 360 | 6.1 | 13.0 | 0.00 | 0.00 | 0.00 | 34 | 1011.4 |
| 20260505184527 | 57 | 311 | 5.2 | 11.3 | 0.00 | 0.00 | 0.00 | 34 | 1011.2 |
| 20260505183022 | 58 | 360 | 4.3 | 13.0 | 0.00 | 0.00 | 0.00 | 36 | 1011.3 |
| 20260505181518 | 57 | 360 | 7.0 | 12.2 | 0.00 | 0.00 | 0.00 | 37 | 1011.2 |
| 20260505180016 | 57 | 360 | 7.8 | 14.8 | 0.00 | 0.00 | 0.00 | 36 | 1011.2 |
| 20260505174514 | 58 | 326 | 5.2 | 10.4 | 0.00 | 0.00 | 0.00 | 38 | 1011.2 |
| 20260505173014 | 57 | 312 | 5.2 | 14.8 | 0.00 | 0.00 | 0.00 | 37 | 1011.0 |
| 20260505171600 | 58 | 360 | 0.0 | 9.6 | 0.00 | 0.00 | 0.00 | 37 | 1010.9 |
| 20260505170057 | 58 | 315 | 3.5 | 12.2 | 0.00 | 0.00 | 0.00 | 36 | 1010.6 |
| 20260505164600 | 59 | 360 | 2.6 | 13.0 | 0.00 | 0.00 | 0.00 | 36 | 1010.6 |
| 20260505163054 | 58 | 360 | 3.5 | 12.2 | 0.00 | 0.00 | 0.00 | 36 | 1010.6 |
| 20260505161545 | 58 | 332 | 0.9 | 8.7 | 0.00 | 0.00 | 0.00 | 38 | 1010.9 |